Probability
0 0 0 0 0 0 0 0 0 0 0 0 0 0 0 0 0 0 0 0 0 0 0 0 0 0 0 0 0 0 0 0 0 0 0 0 0 0 0 0 0 0 0
0 0 0 0 0 0 0 0 0 0 0 0 0 0 0 0 0 0 0 0 0 0 0 0 0 0 0 0 0 0 0 0 0 0 0 0 0 0 0 0 0 0 0
0 0 0 3 3 3 0 0 0 0 0 0 0 0 0 0 0 0 0 0 0 0 0 0 0 0 0 0 0 0 0 0 0 0 0 0 0 0 0 0 0 0 0
0 0 0 0 3 3 3 0 0 0 0 0 0 0 0 0 0 0 0 0 0 0 0 0 0 0 0 0 0 0 0 0 0 0 0 0 0 0 0 0 0 0 0
0 0 0 0 0 0 3 0 0 0 0 0 0 0 0 0 0 0 0 0 0 0 0 0 0 0 0 0 0 0 0 0 0 0 0 0 0 0 0 0 0 0 0
0 0 0 0 0 0 0 0 0 0 0 0 0 0 0 0 0 0 0 0 0 0 0 0 0 0 0 0 0 0 0 0 0 0 0 0 0 0 0 0 0 0 0
0 0 0 0 0 0 0 0 0 0 0 0 0 0 0 0 0 0 0 0 0 0 0 0 0 0 0 0 0 0 0 0 0 0 0 0 0 0 0 0 0 0 0
0 0 0 0 0 0 0 0 0 0 0 0 0 0 0 0 0 0 0 0 0 0 0 0 0 0 0 0 0 0 0 0 0 0 0 0 0 0 0 0 0 0 0
0 0 0 0 0 0 0 0 0 0 0 0 0 0 0 0 0 0 0 0 0 0 0 0 0 0 0 0 0 0 0 0 0 0 0 0 0 0 0 0 0 0 0
0 0 0 0 0 0 0 0 0 0 0 0 0 0 0 0 0 0 0 0 0 0 0 0 0 0 0 0 0 0 0 0 0 0 0 0 0 0 0 0 0 0 0
3 0 0 0 0 0 0 0 0 0 0 0 0 0 0 0 0 0 0 0 0 0 0 0 0 0 0 0 0 0 0 0 0 0 0 0 0 0 0 0 0 0 0
0 0 0 0 0 0 0 0 0 0 0 0 0 0 0 0 0 0 0 0 0 0 0 0 0 0 0 0 0 0 0 0 0 0 0 0 0 0 0 0 0 0 0
0 0 0 0 0 0 0 0 0 0 0 0 0 0 0 0 0 0 0 0 0 0 0 0 0 0 0 0 0 0 0 0 0 0 0 0 0 0 0 0 0 0 0
0 0 0 0 0 0 0 0 0 0 0 0 0 0 0 0 0 0 0 0 0 0 0 0 0 0 0 0 0 0 0 0 0 0 0 0 0 0 0 0 0 0 0
0 0 0 0 0 0 0 0 0 0 0 0 0 0 0 0 0 0 0 0 0 0 0 0 0 0 0 0 0 0 0 0 0 0 0 0 0 0 0 0 0 0 0
0 0 0 0 0 0 0 0 0 0 0 0 0 0 0 0 0 0 0 0 0 0 0 0 0 0 0 0 0 0 0 0 0 0 0 0 0 0 0 0 0 0 0
0 0 0 0 0 0 0 0 0 0 0 0 0 0 0 0 0 0 0 0 0 0 0 0 0 0 0 0 0 0 0 0 0 0 0 0 0 0 0 0 0 0 0
0 0 0 0 0 0 0 0 0 0 0 0 0 0 0 0 0 0 0 0 0 0 0 0 0 0 0 0 0 0 0 0 0 0 0 0 0 0 0 0 0 0 0
0 0 0 0 0 0 0 0 0 0 0 0 0 0 0 0 0 0 0 0 0 0 0 0 0 0 0 0 0 0 0 0 0 0 0 0 0 0 0 0 0 0 0
0 0 0 0 0 0 0 0 0 0 0 0 0 0 0 0 0 0 0 0 0 0 0 0 0 0 0 0 0 0 0 0 0 0 0 0 0 0 0 0 0 0 0
0 0 0 0 0 0 0 0 0 0 0 0 0 0 0 0 0 0 0 0 0 0 0 0 0 0 0 0 0 0 0 0 0 0 0 0 0 0 0 0 0 0 0
0 0 0 0 0 0 0 0 0 0 0 0 0 0 0 0 0 0 0 0 0 0 0 0 0 0 0 0 0 0 0 0 0 0 0 0 0 0 0 0 0 0 0
0 0 0 0 0 0 0 0 0 0 0 0 0 0 0 0 0 0 0 0 0 0 0 0 0 0 0 0 0 0 0 0 0 0 0 0 0 0 0 0 0 0 0
0 0 0 0 0 0 0 0 0 0 0 0 0 0 0 0 0 0 0 0 0 0 0 0 0 0 0 0 0 0 0 0 0 0 0 0 0 0 0 0 0 0 0
0 0 0 0 0 0 0 0 0 0 0 0 0 0 0 0 0 0 0 0 0 0 0 0 0 0 0 0 0 0 0 0 0 0 0 0 0 0 0 0 0 0 0
0 0 0 0 0 0 0 0 0 0 0 0 0 0 0 0 0 0 0 0 0 0 0 0 0 0 0 0 0 0 0 0 0 0 0 0 0 0 0 0 0 0 0
Height
5783 5783 5782 5782 5782 5782 5781 5781 5780 5780 5780 5780 5781 5781 5782 5782 5783 5783 5784 5784 5784 5784 5784 5784 5784 5784 5783 5783 5783 5783 5783 5783 5783 5783 5783 5783 5783 5783 5782 5782 5782 5782 5781
5777 5777 5777 5776 5776 5775 5775 5775 5774 5774 5774 5774 5774 5774 5775 5776 5776 5777 5777 5778 5778 5778 5778 5778 5778 5778 5777 5777 5777 5777 5777 5777 5777 5777 5777 5776 5776 5776 5776 5776 5775 5775 5775
5771 5771 5771 5771 5770 5769 5769 5768 5768 5767 5767 5767 5767 5768 5768 5769 5769 5770 5771 5771 5771 5771 5771 5771 5771 5771 5771 5770 5770 5770 5770 5770 5770 5770 5770 5770 5770 5769 5769 5769 5769 5769 5768
5765 5764 5764 5764 5764 5763 5763 5762 5761 5761 5761 5761 5761 5761 5761 5762 5763 5763 5764 5764 5765 5765 5765 5765 5765 5764 5764 5764 5763 5763 5763 5763 5763 5763 5763 5763 5763 5763 5763 5763 5762 5762 5762
5758 5758 5758 5758 5757 5757 5756 5755 5755 5754 5754 5754 5754 5754 5755 5755 5756 5756 5757 5758 5758 5758 5758 5758 5758 5757 5757 5757 5756 5756 5756 5756 5756 5756 5756 5756 5756 5756 5756 5756 5755 5755 5755
5751 5751 5751 5750 5750 5750 5749 5749 5748 5748 5748 5747 5748 5748 5748 5748 5748 5749 5749 5750 5751 5751 5751 5751 5750 5750 5750 5749 5749 5749 5749 5748 5748 5748 5749 5749 5748 5748 5748 5748 5748 5748 5748
5744 5744 5743 5743 5742 5742 5742 5742 5742 5741 5741 5741 5740 5740 5741 5741 5741 5742 5742 5743 5743 5743 5743 5743 5743 5743 5742 5742 5742 5741 5741 5741 5741 5741 5742 5741 5741 5741 5741 5741 5740 5740 5740
5736 5736 5735 5735 5735 5734 5734 5734 5734 5734 5734 5734 5733 5733 5733 5734 5734 5734 5735 5735 5735 5735 5735 5735 5735 5735 5735 5734 5734 5734 5734 5734 5734 5734 5734 5734 5734 5733 5733 5733 5733 5732 5732
5729 5728 5727 5727 5726 5726 5726 5726 5726 5726 5726 5726 5726 5725 5726 5726 5726 5727 5727 5727 5728 5728 5728 5728 5727 5727 5727 5727 5727 5727 5727 5726 5726 5726 5726 5726 5726 5725 5725 5725 5725 5725 5724
5721 5720 5719 5718 5718 5718 5717 5717 5717 5717 5717 5717 5717 5718 5718 5718 5719 5719 5719 5720 5720 5720 5720 5720 5720 5720 5719 5719 5719 5719 5719 5719 5718 5718 5719 5719 5718 5718 5718 5717 5717 5717 5716
5711 5710 5710 5709 5709 5709 5709 5709 5709 5709 5709 5709 5709 5710 5710 5710 5711 5711 5711 5711 5712 5712 5712 5712 5712 5711 5711 5711 5711 5711 5711 5711 5711 5711 5711 5711 5711 5711 5710 5710 5709 5709 5708
5702 5701 5701 5700 5700 5700 5700 5700 5700 5700 5700 5701 5701 5701 5701 5702 5702 5702 5703 5703 5704 5704 5704 5704 5704 5703 5703 5703 5703 5703 5703 5703 5703 5704 5704 5704 5703 5703 5702 5702 5701 5700 5700
5693 5692 5691 5691 5691 5690 5690 5690 5691 5691 5691 5692 5692 5693 5693 5693 5693 5694 5694 5695 5695 5696 5696 5696 5696 5695 5695 5695 5695 5695 5695 5695 5696 5696 5696 5696 5695 5695 5694 5693 5693 5692 5691
5683 5683 5682 5682 5681 5681 5681 5681 5682 5682 5682 5683 5683 5684 5684 5684 5684 5685 5686 5686 5687 5687 5687 5687 5687 5687 5687 5687 5687 5687 5687 5687 5687 5688 5687 5687 5687 5686 5686 5685 5685 5684 5683
5674 5673 5673 5672 5672 5672 5672 5672 5672 5672 5672 5673 5674 5674 5675 5675 5676 5676 5677 5677 5678 5679 5679 5679 5679 5679 5679 5679 5679 5679 5679 5679 5679 5679 5679 5679 5678 5678 5677 5677 5676 5675 5675
5665 5664 5664 5663 5663 5662 5662 5662 5662 5663 5663 5663 5664 5664 5665 5666 5666 5667 5668 5668 5669 5670 5670 5670 5671 5670 5670 5670 5670 5670 5670 5670 5670 5670 5670 5670 5670 5669 5668 5668 5667 5666 5665
5656 5655 5654 5654 5654 5653 5653 5653 5653 5654 5653 5653 5654 5654 5655 5656 5657 5658 5658 5659 5660 5660 5661 5661 5662 5662 5662 5662 5662 5662 5662 5662 5662 5661 5661 5661 5660 5660 5659 5658 5657 5657 5655
5646 5645 5645 5644 5644 5643 5643 5644 5644 5644 5644 5644 5644 5645 5645 5646 5647 5648 5649 5650 5650 5651 5652 5652 5653 5653 5653 5653 5653 5653 5653 5653 5652 5652 5652 5651 5651 5650 5649 5649 5648 5647 5646
5636 5636 5635 5634 5634 5634 5634 5634 5634 5634 5635 5635 5635 5635 5635 5636 5637 5638 5638 5639 5640 5641 5642 5642 5643 5643 5643 5643 5644 5643 5643 5643 5643 5642 5642 5641 5641 5640 5640 5639 5638 5637 5636
5626 5625 5625 5624 5624 5624 5624 5624 5624 5624 5625 5625 5625 5626 5626 5627 5627 5627 5628 5629 5630 5631 5631 5632 5633 5633 5633 5633 5633 5633 5633 5633 5633 5632 5632 5631 5630 5630 5629 5629 5628 5627 5626
5616 5615 5614 5614 5614 5614 5614 5614 5614 5614 5615 5615 5615 5616 5616 5617 5617 5617 5618 5618 5619 5620 5621 5622 5622 5622 5623 5623 5623 5623 5622 5622 5622 5622 5621 5620 5620 5619 5619 5618 5617 5616 5615
5606 5605 5605 5604 5604 5604 5604 5604 5604 5604 5604 5605 5605 5605 5605 5606 5606 5606 5607 5607 5608 5608 5609 5610 5611 5611 5611 5611 5611 5612 5612 5611 5611 5610 5610 5609 5609 5608 5607 5607 5606 5605 5604
5596 5595 5595 5594 5594 5593 5593 5593 5593 5593 5594 5594 5594 5594 5594 5594 5595 5595 5595 5595 5596 5597 5597 5598 5599 5600 5600 5600 5600 5600 5600 5600 5599 5599 5599 5598 5598 5597 5596 5595 5595 5594 5593
5585 5585 5584 5584 5583 5583 5583 5583 5583 5583 5583 5583 5583 5583 5583 5583 5583 5583 5584 5584 5584 5584 5585 5586 5587 5587 5588 5588 5588 5588 5588 5588 5588 5587 5587 5587 5586 5585 5585 5584 5583 5582 5582
5575 5575 5574 5573 5573 5572 5572 5572 5572 5572 5572 5572 5572 5572 5572 5572 5572 5572 5572 5572 5572 5573 5573 5574 5574 5575 5575 5575 5576 5576 5576 5576 5576 5576 5575 5575 5574 5574 5573 5572 5572 5571 5571
5566 5565 5564 5563 5562 5562 5561 5561 5561 5560 5560 5561 5561 5561 5561 5561 5560 5560 5560 5561 5561 5561 5562 5562 5562 5563 5563 5563 5563 5564 5564 5564 5564 5564 5564 5564 5563 5562 5562 5561 5561 5560 5560
Wind_Speed
19 19 19 19 20 20 20 20 20 21 21 21 21 21 22 21 21 20 20 20 21 21 21 21 21 21 20 20 21 20 20 21 21 21 21 21 21 22 22 22 23 23 23
19 20 20 20 21 21 21 21 21 21 21 21 21 21 22 22 21 20 20 21 21 21 22 22 22 22 22 21 22 22 22 21 22 22 22 22 22 22 22 22 22 22 23
20 20 21 21 21 21 21 21 21 21 21 21 21 22 22 21 21 21 21 21 21 22 22 22 23 23 23 23 23 23 23 23 22 22 23 23 22 22 22 22 22 22 23
21 21 22 22 22 22 22 22 22 21 21 21 21 22 22 22 22 22 21 21 22 22 22 23 23 23 23 23 24 24 24 24 23 23 23 23 23 23 22 22 22 23 24
22 22 23 23 24 24 23 22 22 22 23 23 23 22 22 22 22 22 22 22 22 22 23 23 23 23 24 23 24 24 24 24 24 24 24 24 24 25 24 24 24 24 23
23 23 24 25 25 24 24 24 23 23 23 23 23 23 23 23 22 22 23 23 23 24 24 24 24 24 23 24 24 24 23 23 23 24 24 24 25 25 25 24 24 24 23
25 25 26 26 26 25 26 25 24 24 24 24 24 24 24 23 23 24 24 24 24 24 24 25 25 24 24 24 23 23 23 23 24 24 23 23 24 24 24 24 24 24 24
26 27 27 27 27 27 27 27 27 26 26 25 25 25 24 24 24 24 24 25 24 24 24 25 25 25 24 24 23 23 23 23 24 24 24 23 24 24 24 24 24 25 25
27 28 28 28 28 28 28 28 28 28 27 27 27 26 26 26 25 25 25 25 25 25 25 25 25 25 25 24 24 23 23 24 24 24 24 24 24 24 24 24 25 25 24
28 28 29 29 29 29 29 29 29 28 28 27 27 27 27 26 26 26 26 26 26 25 25 26 26 25 25 24 24 24 24 25 24 24 23 23 24 24 24 24 24 24 25
29 29 29 30 30 30 29 28 28 28 27 27 27 26 26 26 27 27 26 26 25 25 25 26 26 25 25 25 25 25 24 24 23 23 23 23 23 24 25 25 25 25 25
30 30 29 30 30 30 29 29 29 29 28 28 27 27 27 27 27 27 27 26 26 26 26 26 26 26 25 25 25 25 25 25 24 23 24 24 25 25 25 25 26 25 25
30 30 30 30 30 30 30 29 30 30 30 30 29 29 28 28 28 27 27 27 26 26 26 27 26 26 26 26 26 25 25 25 25 25 25 25 25 25 25 26 26 25 26
29 29 30 30 31 31 30 30 31 31 31 30 30 29 29 29 29 28 28 26 26 27 27 26 26 25 25 26 26 26 26 26 26 25 25 26 26 26 26 26 26 26 26
30 29 29 29 30 30 31 30 31 31 31 30 30 30 30 30 29 29 29 29 28 28 28 27 26 26 26 26 27 27 27 26 26 26 26 26 26 27 27 27 27 27 27
30 30 29 29 30 30 30 29 29 29 29 30 30 30 30 30 30 29 30 29 28 28 28 27 27 27 27 27 26 27 27 28 28 28 28 28 28 28 28 28 28 28 29
31 30 30 30 30 30 29 29 29 29 29 30 30 30 30 30 30 30 30 29 29 29 29 28 28 28 28 28 27 27 27 28 29 29 29 29 29 29 29 29 29 29 29
31 31 31 31 30 30 30 29 29 30 30 30 30 30 30 30 31 32 31 31 30 30 30 30 29 29 29 28 28 28 28 29 29 29 30 30 30 30 30 30 30 29 30
30 31 31 31 30 30 30 30 30 31 31 30 30 29 30 31 31 32 32 32 32 31 31 31 30 30 30 30 30 30 30 30 30 30 30 30 31 31 31 31 31 31 31
31 32 32 31 31 31 31 31 31 31 31 31 30 31 31 31 32 32 32 32 32 33 33 33 32 32 32 32 32 32 32 32 32 31 31 31 31 31 32 33 33 33 32
31 31 32 32 32 32 32 32 32 32 32 32 31 31 32 32 32 32 32 33 34 35 34 34 33 33 33 34 34 34 34 33 34 34 33 33 33 33 34 34 34 34 33
31 31 31 31 31 32 32 33 33 32 32 32 32 32 32 32 32 33 33 34 34 35 35 35 34 34 34 35 35 35 35 35 35 35 35 35 35 35 34 34 34 34 34
31 31 31 31 32 32 32 32 32 32 33 33 33 33 33 33 34 34 34 34 35 36 36 36 35 35 35 35 34 35 36 36 36 35 35 35 35 34 34 35 35 34 33
31 31 31 32 32 31 32 32 33 33 34 34 33 33 34 34 34 34 34 34 35 36 36 37 36 35 35 35 35 35 35 35 35 35 35 35 35 35 35 34 34 34 33
30 30 30 31 31 32 32 33 33 34 33 33 33 33 34 34 34 34 34 34 34 34 35 35 35 35 35 35 35 35 35 35 35 34 34 34 34 34 33 33 33 33 33
29 29 29 30 30 30 31 32 32 32 32 33 33 34 34 34 34 34 34 34 34 34 34 34 35 35 36 36 35 35 35 34 33 33 33 32 31 32 32 32 32 32 32
Wind_Direction
271 268 267 266 266 267 269 269 270 270 268 266 265 265 264 263 264 265 268 269 270 270 269 269 271 272 273 273 271 270 270 270 271 271 271 270 272 273 272 273 274 274 274
267 266 266 266 267 268 269 270 271 270 269 266 266 266 266 265 264 264 266 269 272 272 270 270 270 272 273 273 271 271 272 273 272 272 272 272 274 274 273 274 274 273 274
267 266 267 266 268 269 270 271 271 269 268 267 267 267 266 265 265 265 265 267 270 272 273 272 271 271 273 273 272 272 273 273 273 274 272 272 273 275 274 273 273 274 275
268 268 266 267 270 271 271 271 269 267 267 268 267 267 266 266 266 266 266 266 269 271 274 273 272 272 274 274 272 271 271 272 271 272 271 271 272 274 274 273 274 277 277
267 268 268 268 270 271 272 271 269 268 268 267 268 268 269 268 268 268 267 267 269 271 273 273 273 274 274 275 273 272 271 270 270 271 270 269 271 272 273 274 275 276 278
268 268 268 269 269 268 269 270 271 270 269 269 269 269 269 269 268 268 268 269 270 272 273 274 274 273 274 273 274 272 271 270 270 270 269 269 270 271 273 275 276 276 277
268 268 268 268 267 266 267 268 268 269 270 271 271 271 270 268 268 269 269 270 271 273 275 275 275 274 273 273 273 272 271 270 271 271 271 271 270 271 272 274 275 276 277
269 269 269 269 267 266 265 266 267 268 268 270 271 271 270 268 269 270 269 271 272 275 275 275 274 274 273 272 272 271 271 270 270 270 270 270 271 272 273 274 276 278 280
270 270 269 269 267 265 266 266 266 267 268 269 270 270 269 269 270 269 269 271 272 274 275 274 274 273 272 271 270 270 270 271 271 271 269 270 271 271 272 274 276 279 280
273 273 270 268 267 266 266 265 265 266 268 269 270 270 269 269 268 268 269 270 270 272 273 273 272 271 270 270 268 269 270 271 272 271 270 271 272 273 274 275 278 279 280
274 274 271 268 267 267 266 265 265 265 266 268 268 268 269 270 268 267 267 269 270 270 271 271 270 269 268 268 268 269 268 269 270 271 271 271 273 275 275 276 278 280 281
274 274 273 269 268 268 267 265 264 264 266 267 268 268 268 268 268 267 266 267 267 268 269 269 268 268 267 267 268 268 268 268 269 270 272 273 273 274 275 277 279 279 280
275 274 273 272 270 269 269 267 266 266 266 267 268 269 269 269 268 266 266 266 265 266 267 267 266 266 266 266 267 267 268 269 269 270 272 273 274 275 276 278 279 279 281
276 275 274 273 270 269 268 268 268 267 267 267 268 268 267 268 267 265 265 265 264 265 266 265 265 265 265 266 266 266 267 267 269 270 271 273 275 277 276 278 279 280 280
276 275 273 272 271 270 269 269 268 268 268 269 268 267 267 267 268 267 267 265 266 266 265 264 264 265 266 267 266 265 266 267 269 270 273 274 276 277 276 278 279 280 280
276 275 274 273 272 271 270 268 267 268 269 270 268 267 267 267 267 267 267 266 267 267 266 266 265 266 267 267 267 267 268 269 270 272 273 275 276 277 278 278 280 281 280
277 276 275 274 274 272 271 269 268 268 269 269 269 268 267 267 267 267 265 266 268 268 267 267 267 267 268 267 267 268 269 270 271 272 274 276 276 277 278 278 280 281 282
278 277 275 274 274 272 270 269 269 269 270 269 269 269 267 266 266 265 264 266 266 266 266 267 268 269 268 268 268 268 270 271 273 274 276 277 277 277 279 279 280 281 281
277 277 275 273 273 273 271 269 270 270 269 269 269 269 269 268 266 264 264 265 265 265 264 265 266 267 268 268 269 269 270 271 273 274 276 277 277 277 278 279 279 280 281
276 276 275 273 272 271 270 270 270 269 269 270 271 270 268 268 268 267 266 265 265 265 265 265 266 266 267 268 270 270 270 271 272 274 276 277 276 276 278 278 279 280 280
276 275 275 273 271 271 270 270 270 270 271 270 270 270 269 268 268 267 267 268 266 265 266 266 267 267 267 268 269 271 272 272 272 273 274 276 277 278 278 278 278 278 278
275 275 275 274 272 272 272 272 271 270 270 269 269 270 270 268 268 267 267 268 268 266 265 266 266 267 269 270 271 272 273 273 274 275 275 276 277 277 277 277 278 278 278
274 274 274 273 272 272 272 272 271 271 271 270 270 270 270 270 269 269 270 270 267 266 265 264 265 267 269 270 271 272 273 273 273 274 274 276 276 277 277 278 278 278 277
276 274 273 274 273 272 272 273 271 270 270 271 271 271 271 271 270 270 270 269 267 265 264 265 265 267 268 270 271 272 273 272 272 273 274 275 276 277 278 278 277 276 276
278 276 276 276 275 274 273 273 272 271 271 272 272 271 271 271 272 271 270 269 268 266 265 266 266 267 268 270 271 272 272 272 272 273 274 275 276 277 277 277 277 276 276
281 279 279 279 278 277 275 274 273 272 272 271 271 271 272 273 273 272 270 268 267 267 267 268 268 268 268 269 270 271 270 270 271 272 273 275 277 277 277 277 276 275 275